Wind_Speed
22 20 19 20 20 20 19 20 20 21 21 21 24 25 23 20 19 18 17 18 18 18 17 16 15 14 14 14 14 14 14 14 14 13 12 11 10 9 9 10 10 11
21 19 19 20 19 18 18 18 18 19 20 22 25 25 22 20 20 19 19 20 20 20 19 17 16 15 14 14 15 15 14 14 13 13 12 11 10 9 9 10 11 11
20 19 20 19 18 16 17 18 18 18 21 25 26 24 22 22 21 20 21 22 22 20 19 19 18 16 15 15 15 15 15 14 13 13 12 11 10 9 10 10 11 11
20 19 19 18 17 17 17 17 16 18 23 26 25 24 23 23 23 22 22 21 21 20 20 20 18 17 17 16 16 15 15 14 13 13 12 10 10 10 10 10 11 11
19 19 18 17 17 16 16 16 16 20 25 25 23 23 24 23 23 23 22 21 20 20 21 20 18 18 17 16 16 16 15 14 14 13 12 10 10 10 10 11 11 11
19 19 18 18 17 15 15 17 18 22 25 23 22 22 23 23 23 23 22 21 20 20 21 20 19 19 18 17 17 16 15 15 14 13 12 11 10 11 11 11 11 11
19 19 19 18 17 16 17 18 19 23 25 23 22 22 22 22 22 22 22 20 20 20 20 20 20 19 18 17 17 16 16 15 14 13 12 11 11 11 12 11 11 11
20 19 19 18 17 17 18 19 21 23 24 24 23 22 22 22 22 22 21 20 20 20 20 20 20 19 18 18 17 16 16 15 15 14 12 12 12 12 12 11 11 11
20 19 18 18 18 19 19 21 22 23 23 23 23 22 23 22 22 22 21 20 20 20 21 20 20 19 18 17 17 17 16 15 15 14 13 13 13 13 12 12 11 11
20 19 18 18 19 19 20 22 23 23 23 24 23 23 23 22 22 21 20 20 20 20 20 20 19 18 17 17 17 17 16 16 15 14 14 14 14 14 13 12 12 12
20 19 18 18 19 20 21 22 24 24 25 25 24 24 24 22 21 20 19 19 19 20 20 19 19 18 17 17 17 17 17 16 16 15 15 15 15 14 13 12 12 12
21 19 18 19 20 21 22 22 23 25 27 26 25 24 23 21 20 19 19 19 19 19 19 19 19 18 18 18 18 18 18 17 16 16 16 16 16 15 14 13 13 12
21 19 19 20 21 22 23 23 24 26 27 26 24 24 22 20 19 19 19 19 20 20 19 19 19 19 18 18 18 19 19 18 18 18 17 17 16 16 15 14 13 13
21 20 20 20 21 23 24 24 24 26 27 25 23 22 20 19 20 20 20 21 20 20 20 20 20 20 19 19 19 19 19 19 19 19 18 17 17 16 16 15 13 13
22 22 21 20 21 23 25 25 26 26 26 25 24 22 21 21 22 22 22 23 21 21 20 20 21 21 20 19 20 20 19 20 20 20 19 18 17 17 17 15 14 13
24 23 22 21 22 23 25 26 26 26 25 25 25 23 23 23 23 23 24 24 23 22 21 21 21 21 20 20 20 20 20 21 22 21 20 19 18 18 18 16 15 14
25 24 23 22 22 24 26 26 26 26 25 25 25 24 24 25 25 25 26 26 25 23 21 21 22 22 21 21 21 21 21 22 22 22 21 20 19 19 19 17 16 15
26 26 24 22 23 25 25 25 25 26 25 25 25 25 26 27 27 26 27 27 27 25 23 22 22 22 22 21 22 22 23 23 23 23 23 21 20 20 19 18 17 16
27 26 24 22 23 24 24 24 25 26 25 25 26 27 27 27 27 27 28 28 28 26 25 24 24 23 22 22 23 23 24 25 25 25 24 22 21 21 20 19 18 17
28 26 24 23 23 23 23 24 25 25 25 26 27 28 27 27 27 28 28 29 30 29 27 25 24 24 23 24 24 24 25 26 26 26 25 23 21 21 21 20 19 19
28 25 24 24 23 23 23 24 25 24 25 26 28 28 27 27 28 29 30 31 33 32 30 27 26 26 26 25 25 26 26 27 27 27 25 24 22 22 22 21 21 20
27 25 24 23 23 23 24 25 25 25 25 27 27 27 27 28 30 31 32 34 35 34 33 31 31 30 29 27 27 27 28 29 29 27 26 26 24 22 22 22 22 21
25 24 23 24 23 23 24 25 26 26 27 27 27 27 27 28 30 32 33 34 35 35 35 36 37 35 31 29 29 29 29 30 30 29 29 29 27 23 22 23 23 22
24 24 24 24 23 23 24 26 27 28 28 28 28 28 28 29 31 32 34 34 35 36 38 38 38 35 31 30 31 31 31 31 31 30 30 31 29 24 22 24 24 22
24 23 23 24 24 24 25 27 28 29 29 29 29 29 29 30 30 31 32 32 31 33 33 31 31 31 30 31 33 33 32 30 30 29 29 31 30 25 23 25 25 22
24 23 24 24 24 25 27 28 29 30 29 29 31 31 30 30 29 29 29 29 28 28 28 26 26 27 30 33 34 34 31 29 29 29 30 32 31 26 23 25 25 22
Wind_Direction
235 238 241 241 242 245 246 246 244 241 237 228 217 208 204 208 214 217 221 225 226 230 240 248 255 265 273 275 276 275 277 279 280 281 281 280 280 282 286 290 299 309
233 235 240 242 243 245 245 245 243 240 232 218 208 203 204 210 213 215 221 223 227 236 247 255 261 271 276 275 274 274 275 277 277 278 277 276 279 282 287 294 304 313
231 234 240 243 243 243 244 245 241 233 222 213 208 205 206 211 213 217 222 224 231 243 254 260 263 271 275 273 273 273 274 275 275 275 274 274 279 283 288 298 308 316
231 235 241 242 241 241 244 247 240 225 218 215 211 208 209 213 217 225 230 230 236 248 256 260 263 269 272 271 271 272 272 272 272 272 272 274 280 283 289 300 310 315
231 237 240 238 239 242 244 243 230 217 218 218 213 210 213 217 222 231 236 237 240 249 256 259 262 266 268 269 269 269 270 269 269 270 270 274 280 283 291 302 309 311
233 238 239 237 239 241 241 236 220 211 217 220 214 212 217 222 229 234 235 238 244 251 256 258 260 263 265 266 266 268 268 267 268 269 270 274 279 284 293 301 304 306
236 239 239 239 238 237 235 228 214 207 213 219 216 216 221 226 230 233 235 241 248 253 256 257 259 261 261 262 264 266 267 266 267 268 270 273 278 284 292 297 299 301
236 238 238 237 235 234 232 222 211 207 213 219 219 220 224 228 230 235 240 245 251 254 256 257 258 258 258 260 263 265 264 265 267 268 269 272 277 283 289 292 295 297
235 238 235 233 233 233 230 220 213 212 217 222 223 222 225 229 232 238 244 249 253 255 255 256 256 255 257 260 262 263 263 264 266 267 268 271 275 281 285 288 291 293
234 237 235 232 233 233 230 222 217 217 220 224 225 225 227 231 236 242 248 253 256 256 255 255 254 254 257 259 261 263 263 263 264 264 266 269 273 277 280 284 288 288
233 235 235 233 232 232 230 225 221 219 223 226 226 227 230 234 239 245 251 256 258 257 255 253 253 254 256 259 261 262 261 262 263 263 265 267 270 274 278 281 284 284
234 235 235 233 231 230 229 228 223 221 224 226 227 229 232 237 242 248 253 258 259 258 255 254 254 255 257 259 261 261 261 262 262 262 263 265 268 271 274 278 279 279
235 236 235 232 230 228 229 230 226 223 225 227 228 231 235 240 246 251 254 258 260 259 258 257 256 257 258 259 260 260 260 261 261 261 261 262 266 269 272 274 275 275
233 235 235 232 230 228 228 230 228 226 227 229 231 234 238 242 247 251 252 256 261 261 260 258 257 258 258 258 259 260 261 261 260 260 261 262 264 267 269 271 271 271
231 234 235 232 230 228 228 229 229 229 229 231 234 236 238 242 246 249 250 253 259 260 259 256 255 256 256 257 259 260 260 261 260 260 261 261 263 266 268 269 267 266
230 233 236 234 231 230 230 230 230 231 232 233 236 238 240 244 248 250 251 253 257 259 258 255 254 255 255 256 258 259 259 259 260 260 260 259 261 265 267 266 264 262
231 233 236 236 231 230 231 230 231 234 235 236 238 241 243 247 251 253 254 256 258 261 261 257 255 255 255 255 255 256 257 258 258 259 258 258 260 264 266 265 261 259
233 235 238 236 231 230 231 232 234 236 237 238 241 244 245 248 253 256 257 259 261 265 265 261 258 257 255 254 254 254 255 257 257 257 256 255 258 262 264 263 260 257
233 237 238 236 234 233 233 235 236 238 239 240 244 247 248 251 255 259 261 262 263 265 265 261 259 257 254 253 254 254 255 256 256 256 256 255 256 261 263 262 260 257
234 236 237 236 238 237 235 236 238 240 241 241 245 249 250 253 258 261 264 265 264 264 264 262 259 257 254 252 253 254 254 255 256 256 256 255 256 260 262 262 260 257
235 236 237 239 241 240 237 237 240 242 243 244 248 251 252 255 258 261 263 264 264 264 264 263 260 255 251 249 250 252 252 252 254 255 255 255 256 259 261 261 259 257
235 238 239 241 244 243 241 241 242 244 247 249 252 253 254 257 259 261 263 265 269 270 269 265 258 249 244 244 246 248 249 251 252 253 253 251 251 253 257 258 258 257
235 239 240 242 245 245 245 245 245 248 251 254 256 256 256 258 260 261 264 267 271 273 271 265 255 244 235 236 240 242 244 248 251 252 252 252 250 249 253 257 257 256
236 239 240 242 245 246 247 248 249 251 254 256 257 257 257 259 260 262 265 269 273 276 276 272 265 254 243 238 237 236 237 243 248 251 253 255 254 251 251 255 256 255
236 240 242 243 245 246 248 250 251 253 255 256 258 259 259 260 262 265 270 275 280 282 284 282 276 268 260 253 248 244 242 244 247 250 252 253 252 248 248 252 254 253
235 239 242 244 246 246 248 250 253 255 257 258 259 260 260 262 266 270 275 280 282 283 285 285 278 268 263 260 258 257 258 256 253 251 250 250 248 245 246 251 255 256
Height
3127 3128 3129 3130 3131 3132 3133 3133 3134 3135 3136 3137 3139 3141 3143 3145 3147 3149 3150 3151 3152 3153 3154 3154 3155 3155 3155 3154 3154 3154 3154 3154 3153 3153 3153 3152 3152 3151 3151 3150 3150 3149
3125 3126 3127 3128 3129 3130 3131 3131 3132 3133 3135 3136 3138 3140 3142 3144 3146 3148 3149 3150 3151 3152 3152 3152 3153 3153 3153 3153 3152 3152 3152 3152 3152 3151 3151 3151 3150 3150 3149 3149 3148 3148
3124 3125 3126 3126 3128 3129 3129 3129 3130 3132 3133 3134 3137 3139 3141 3143 3144 3146 3147 3148 3149 3150 3150 3150 3151 3151 3151 3151 3150 3150 3150 3150 3150 3150 3150 3149 3149 3148 3148 3148 3147 3146
3122 3123 3124 3125 3125 3126 3126 3127 3129 3130 3131 3133 3136 3138 3139 3141 3143 3144 3145 3146 3147 3148 3148 3148 3148 3149 3149 3149 3149 3149 3149 3149 3149 3149 3148 3148 3147 3147 3147 3146 3145 3145
3121 3121 3122 3123 3123 3124 3125 3125 3127 3129 3129 3131 3135 3137 3138 3140 3141 3143 3144 3145 3145 3146 3146 3146 3146 3147 3147 3147 3147 3147 3147 3147 3147 3147 3147 3146 3146 3146 3145 3144 3144 3143
3118 3119 3120 3121 3121 3122 3123 3124 3125 3127 3128 3130 3134 3136 3137 3138 3140 3141 3142 3143 3143 3144 3144 3144 3144 3144 3145 3145 3145 3145 3145 3145 3145 3145 3145 3145 3144 3144 3144 3143 3143 3142
3117 3117 3118 3119 3120 3121 3122 3123 3124 3126 3128 3130 3132 3134 3135 3137 3138 3139 3140 3141 3141 3141 3142 3142 3142 3142 3143 3143 3143 3143 3143 3144 3144 3144 3144 3143 3143 3143 3142 3142 3141 3141
3115 3116 3117 3118 3119 3120 3120 3121 3123 3125 3127 3129 3131 3133 3134 3135 3136 3137 3138 3138 3139 3139 3140 3140 3140 3140 3141 3141 3141 3141 3142 3142 3142 3142 3142 3142 3142 3141 3141 3140 3140 3140
3112 3114 3115 3116 3117 3118 3119 3120 3122 3124 3126 3128 3129 3131 3132 3133 3134 3135 3136 3136 3137 3137 3138 3138 3138 3138 3139 3139 3139 3140 3140 3140 3141 3141 3140 3140 3140 3140 3139 3139 3138 3138
3110 3112 3113 3114 3115 3116 3117 3119 3121 3123 3125 3126 3127 3129 3129 3131 3132 3133 3134 3134 3135 3135 3135 3136 3136 3137 3137 3137 3137 3138 3138 3139 3139 3139 3139 3139 3138 3138 3138 3137 3137 3137
3108 3110 3111 3112 3113 3114 3115 3117 3119 3121 3123 3124 3125 3126 3127 3129 3130 3131 3132 3133 3133 3133 3134 3134 3134 3135 3135 3135 3135 3136 3136 3137 3137 3137 3137 3137 3137 3136 3136 3135 3135 3135
3106 3108 3109 3110 3111 3112 3114 3115 3117 3119 3121 3122 3123 3124 3126 3128 3129 3130 3130 3131 3131 3132 3132 3132 3133 3133 3133 3133 3134 3134 3134 3134 3135 3135 3135 3135 3135 3134 3134 3134 3133 3133
3104 3106 3107 3108 3109 3111 3112 3114 3115 3117 3118 3120 3121 3123 3125 3127 3128 3128 3129 3129 3130 3130 3130 3130 3131 3131 3131 3131 3131 3132 3132 3132 3133 3133 3133 3133 3133 3132 3132 3132 3131 3131
3102 3104 3105 3106 3108 3110 3111 3112 3113 3115 3116 3119 3121 3122 3124 3125 3126 3126 3127 3127 3128 3128 3128 3128 3128 3128 3128 3129 3129 3129 3130 3130 3130 3131 3131 3131 3131 3130 3130 3130 3129 3129
3100 3101 3103 3104 3106 3108 3109 3110 3112 3113 3116 3118 3119 3121 3122 3122 3122 3123 3124 3124 3125 3125 3125 3125 3125 3125 3126 3126 3126 3127 3127 3128 3128 3129 3129 3129 3129 3128 3128 3128 3128 3128
3098 3099 3101 3103 3104 3106 3107 3109 3111 3112 3114 3116 3117 3118 3119 3119 3120 3121 3121 3121 3122 3122 3122 3122 3122 3123 3123 3124 3124 3124 3125 3125 3126 3126 3126 3126 3126 3126 3126 3126 3126 3126
3095 3097 3099 3101 3103 3104 3105 3107 3109 3111 3112 3114 3115 3116 3117 3117 3118 3118 3119 3119 3119 3120 3120 3120 3120 3120 3121 3121 3121 3122 3122 3123 3123 3124 3124 3124 3124 3124 3124 3124 3124 3123
3093 3095 3097 3099 3101 3102 3104 3106 3108 3109 3111 3112 3113 3114 3114 3115 3115 3116 3116 3116 3117 3118 3118 3118 3118 3118 3119 3119 3119 3119 3120 3120 3121 3121 3121 3122 3122 3122 3122 3122 3122 3121
3091 3093 3095 3097 3099 3101 3103 3105 3106 3107 3109 3110 3111 3111 3112 3112 3113 3114 3114 3114 3114 3115 3115 3116 3116 3116 3116 3117 3117 3117 3117 3118 3118 3118 3118 3119 3119 3120 3120 3120 3120 3119
3089 3091 3094 3096 3097 3100 3102 3103 3104 3105 3106 3107 3108 3108 3109 3110 3111 3111 3111 3111 3111 3111 3112 3113 3114 3114 3114 3114 3114 3114 3115 3115 3115 3115 3116 3116 3116 3117 3117 3118 3118 3117
3088 3090 3092 3094 3096 3098 3099 3101 3101 3103 3104 3104 3105 3106 3107 3108 3108 3108 3108 3107 3107 3108 3110 3111 3111 3111 3110 3111 3111 3111 3112 3112 3112 3112 3113 3113 3113 3114 3114 3115 3115 3115
3086 3089 3091 3092 3094 3096 3097 3098 3099 3100 3101 3102 3103 3104 3105 3105 3105 3105 3104 3104 3104 3106 3107 3108 3107 3105 3105 3106 3107 3108 3108 3108 3108 3109 3109 3109 3109 3110 3110 3111 3112 3112
3085 3087 3089 3090 3092 3094 3095 3096 3097 3098 3098 3099 3100 3101 3102 3102 3102 3101 3101 3101 3102 3102 3103 3103 3101 3098 3099 3102 3103 3103 3104 3104 3105 3106 3106 3105 3105 3105 3107 3108 3108 3109
3083 3085 3087 3088 3090 3092 3092 3093 3095 3095 3096 3097 3097 3098 3099 3099 3099 3098 3098 3099 3099 3098 3098 3098 3097 3097 3098 3099 3098 3097 3098 3099 3100 3101 3102 3102 3101 3102 3103 3104 3105 3106
3081 3083 3085 3086 3088 3089 3090 3091 3092 3092 3093 3094 3094 3095 3095 3095 3096 3096 3096 3096 3095 3094 3094 3094 3095 3097 3098 3097 3096 3095 3094 3095 3096 3097 3098 3098 3097 3098 3099 3101 3102 3103
3079 3080 3082 3084 3085 3086 3087 3088 3089 3089 3091 3091 3091 3091 3092 3092 3093 3094 3094 3093 3092 3092 3091 3091 3093 3094 3094 3094 3094 3094 3094 3094 3093 3094 3094 3094 3093 3094 3096 3097 3099 3100